Lexington Weather

Lexington, Massachusetts, USA

55°F
5/17/2024 11:39pm 
  • Lexington Conditions: Mostly cloudy
  • Temperature: 55.0°F / 12.8°CColder 1.5°F than last hour.
  • Dew Point: 50.4°FDecreased 0.3°Fsince last hour.
  • Relative Humidity: 84%Increased 3.0% since last hour.
  • Wind: Calm, 10-min avg: Calm, gust: None
  • Barometer: 29.96 in Steady
  • Visibility: 10 miles
  • Rain Today: 0.00 in
  •   

Regional Weather Roundup
for Boston, MA

        
000
ASUS41 KBOX 141810
RWRBOX

REGIONAL WEATHER ROUNDUP
NATIONAL WEATHER SERVICE BOSTON/NORTON MA
200 PM EDT TUE MAY 14 2024

NOTE:  "FAIR" INDICATES FEW OR NO CLOUDS BELOW 12,000 FEET WITH NO 
SIGNIFICANT WEATHER AND/OR OBSTRUCTIONS TO VISIBILITY.

MAZALL-141900-
EASTERN MASSACHUSETTS
  
CITY           SKY/WX    TMP DP  RH WIND       PRES   REMARKS
BOSTON         MOSUNNY   76  54  46 S13       29.94F                  
6HR MIN TEMP:  55; 6HR MAX TEMP:  76;                                

BEVERLY        SUNNY     76  56  49 S13       29.93F                  
LAWRENCE       SUNNY     78  53  41 SW10G22   29.94F                  
BEDFORD        SUNNY     78  52  40 SW16G23   29.92F                  
NORWOOD        SUNNY     77  54  44 SW14G28   29.95F                  
MARSHFIELD     SUNNY     75  52  43 S14       29.97F                  
PLYMOUTH       SUNNY     70  52  52 S12G23    29.99F                  
TAUNTON        SUNNY     74  52  46 S13G25    29.99F                  
NEW BEDFORD    SUNNY     67  54  63 S16G26    30.01F                  
$$

MAZALL-141900-
CAPE COD AND THE ISLANDS
  
CITY           SKY/WX    TMP DP  RH WIND       PRES   REMARKS
FALMOUTH       SUNNY     68  48  49 SW20G25   30.03S                  
HYANNIS        SUNNY     60  52  74 S9G20     30.03F                  
CHATHAM        SUNNY     61  52  72 SW12G28   30.05F                  
PROVINCETOWN   SUNNY     65  52  62 S16G22    30.02F                  
NANTUCKET      NOT AVBL                                               
MARTHAS VNYRD  SUNNY     64  54  69 S17G26    30.05F                  
$$
 
MAZALL-141900-
CENTRAL AND WESTERN MASSACHUSETTS
  
CITY           SKY/WX    TMP DP  RH WIND       PRES   REMARKS
WORCESTER      SUNNY     77  49  37 SW15G25   29.95F                  
6HR MIN TEMP:  56; 6HR MAX TEMP:  77;                                

FITCHBURG      SUNNY     80  45  28 W13G23    29.93F                  
ORANGE         SUNNY     77  52  41 S13G24    29.93F                  
SPRINGFIELD    MOSUNNY   80  52  37 SW18      29.89F                  
WESTFIELD      MOSUNNY   80  53  39 SW13G26   29.92F                  
NORTH ADAMS    NOT AVBL                                               
PITTSFIELD     SUNNY     77  49  37 SW12G21   29.91F                  
$$
 
RIZALL-141900-
RHODE ISLAND
  
CITY           SKY/WX    TMP DP  RH WIND       PRES   REMARKS
PROVIDENCE     MOSUNNY   68  56  65 SE16      29.99F                  
6HR MIN TEMP:  54; 6HR MAX TEMP:  68;                                

NEWPORT        SUNNY     62  52  69 S17G24    30.03S                  
BLOCK ISLAND   MOSUNNY   60  52  74 S17G24    30.04F                  
SMITHFIELD     MOSUNNY   72  57  59 SE9       29.98F                  
WESTERLY       MOSUNNY   63  51  65 S12G23    30.03F                  
$$
 
CTZALL-141900-
CONNECTICUT
  
CITY           SKY/WX    TMP DP  RH WIND       PRES   REMARKS
BRADLEY INTL   PTSUNNY   81  56  42 S12G22    29.93F                  
6HR MIN TEMP:  58; 6HR MAX TEMP:  82;                                

HARTFORD       MOSUNNY   77  57  50 S12G22    29.94F                  
PLAINVILLE     FAIR      78  56  46 S12G22    29.94F                  
BRIDGEPORT     PTSUNNY   67  56  67 E8        29.99F                  
DANBURY        PTSUNNY   76  55  48 SW15G30   29.97F                  
GROTON         MOSUNNY   61  54  77 S13       30.01F                  
NEW HAVEN      MOSUNNY   72  57  59 SE9       29.99F                  
CHESTER        MOSUNNY   73  54  49 SE12      30.00F                  
MERIDEN        MOSUNNY   74  53  48 S15G23    29.97F                  
WILLIMANTIC    SUNNY     76  53  44 SW13G25   29.96F                  
OXFORD         MOSUNNY   72  56  57 S12G21    29.98F                  
$$

MEZ002-015-021-024-NHZ003-005-008-011-012-014-VTZ005-008-141900-
NORTHERN NEW ENGLAND
  
CITY           SKY/WX    TMP DP  RH WIND       PRES   REMARKS
PORTLAND ME    MOSUNNY   62  52  69 S14       29.96F                  
6HR MIN TEMP:  53; 6HR MAX TEMP:  62;                                

BANGOR ME      PTSUNNY   64  50  60 S17       29.98F                  
CONCORD NH     MOSUNNY   82  46  28 S13G18    29.89F                  
MANCHESTER NH  MOSUNNY   82  51  34 S9G18     29.89F                  
NASHUA NH      SUNNY     81  49  32 S8G16     29.91F                  
PORTSMOUTH NH  PTSUNNY   74  54  49 SE9       29.92F                  
JAFFREY NH     SUNNY     77  49  37 S12G18    29.94F                  
KEENE NH       SUNNY     78  53  41 S14       29.90F                  
BURLINGTON VT  PTSUNNY   72  56  57 NW7       29.86S                  
MT. WASHINGTON MOSUNNY   48  45  87 SW23G33     N/A                   
$$

NYZ052-076-141900-
EASTERN NEW YORK
  
CITY           SKY/WX    TMP DP  RH WIND       PRES   REMARKS
ALBANY         MOSUNNY   81  56  42 S10       29.88F                  
6HR MIN TEMP:  61; 6HR MAX TEMP:  81;                                

NEW YORK CITY  CLOUDY    67  54  63 S9        29.98F                  
6HR MIN TEMP:  60; 6HR MAX TEMP:  71;                                

$$
 
ANZALL-141900-
MARINE OBSERVATIONS
  
STATION/POSITION TIME  TEMP    WIND        PRES    VSBY  WAVE
                       AIR SEA DIR/SP/G                  HT/PER
                 (UTC) (F)     (DEG/KT/KT) (MB)    (MI)  (FT/S)
BOSTON BUOY      1740   56 52  150/ 12/ 16 1015.1F
BUZZARDS BAY     1700   53     200/ 16/ 17 1018.0F
NANTUCKET SOUND  1740   55 54  200/ 14/ 16 1017.2F
MASS BAY-STELLWA 1604   55 52  180/ 12/ 14 1016.1F  1 7/8  3/ 8
ISLE OF SHOALS   1700   55     150/ 21/ 22 1013.5F
S OF BLOCK IS    1726      50                N/A           3/ 5
$$

......................KEY.........................
  SKY/WX - SKY CONDITION/PRESENT WEATHER
  TMP    - TEMPERATURE IN FAHRENHEIT
  DWPT   - DEWPOINT IN FAHRENHEIT
  RH     - RELATIVE HUMIDITY IN PERCENT
  WIND   - DIRECTION AND SPEED IN MPH
  PRES   - MEAN SEA LEVEL PRESSURE IN INCHES OF HG
  WCI    - WIND CHILL INDEX
  VSB    - VISIBILITY IN MILES
  HX     - HEAT INDEX
  TC     - TEMPERATURE IN CELSIUS
  VRB    - VARIABLE WIND DIRECTION
  N/A    - NOT AVAILABLE
  
      

Other recent Regional Weather Roundups

Fri May 17, 11:10pm EDT

Fri May 17, 10:10pm EDT

Fri May 17, 9:10pm EDT

Fri May 17, 8:10pm EDT

Fri May 17, 7:10pm EDT

Fri May 17, 6:10pm EDT

Fri May 17, 5:10pm EDT

Fri May 17, 4:10pm EDT

Fri May 17, 3:10pm EDT

Fri May 17, 2:10pm EDT

Fri May 17, 1:10pm EDT

Fri May 17, 12:10pm EDT

Fri May 17, 11:10am EDT

Fri May 17, 10:10am EDT

Fri May 17, 9:10am EDT

Fri May 17, 8:10am EDT

Fri May 17, 7:10am EDT

Fri May 17, 6:10am EDT

Fri May 17, 5:10am EDT

Fri May 17, 4:10am EDT

Fri May 17, 3:10am EDT

Fri May 17, 2:10am EDT

Fri May 17, 1:10am EDT

Fri May 17, 12:10am EDT

Thu May 16, 11:10pm EDT

Thu May 16, 10:10pm EDT

Thu May 16, 9:10pm EDT

Thu May 16, 8:10pm EDT

Thu May 16, 7:10pm EDT

Thu May 16, 6:10pm EDT

Thu May 16, 5:10pm EDT

Thu May 16, 4:10pm EDT

Thu May 16, 3:10pm EDT

Thu May 16, 2:10pm EDT

Thu May 16, 1:10pm EDT

Thu May 16, 12:10pm EDT

Thu May 16, 11:10am EDT

Thu May 16, 10:10am EDT

Thu May 16, 9:10am EDT

Thu May 16, 8:10am EDT

Thu May 16, 7:10am EDT

Thu May 16, 6:10am EDT

Thu May 16, 5:10am EDT

Thu May 16, 4:10am EDT

Thu May 16, 3:10am EDT

Thu May 16, 2:10am EDT

Thu May 16, 1:10am EDT

Thu May 16, 12:10am EDT

Wed May 15, 11:10pm EDT

Wed May 15, 10:10pm EDT

Wed May 15, 9:10pm EDT

Wed May 15, 8:10pm EDT

Wed May 15, 7:10pm EDT

Wed May 15, 6:10pm EDT

Wed May 15, 5:10pm EDT

Wed May 15, 4:10pm EDT

Wed May 15, 3:10pm EDT

Wed May 15, 2:10pm EDT

Wed May 15, 1:10pm EDT

Wed May 15, 12:10pm EDT

Wed May 15, 11:10am EDT

Wed May 15, 10:10am EDT

Wed May 15, 9:10am EDT

Wed May 15, 8:10am EDT

Wed May 15, 7:10am EDT

Wed May 15, 6:10am EDT

Wed May 15, 5:10am EDT

Wed May 15, 4:10am EDT

Wed May 15, 3:10am EDT

Wed May 15, 2:10am EDT

Wed May 15, 1:10am EDT

Wed May 15, 12:10am EDT

Tue May 14, 11:10pm EDT

Tue May 14, 10:10pm EDT

Tue May 14, 9:10pm EDT

Tue May 14, 8:10pm EDT

Tue May 14, 7:10pm EDT

Tue May 14, 6:10pm EDT

Tue May 14, 5:10pm EDT

Tue May 14, 4:10pm EDT

Tue May 14, 3:10pm EDT

Tue May 14, 1:10pm EDT

Tue May 14, 12:10pm EDT

Tue May 14, 11:10am EDT

Tue May 14, 10:10am EDT

Tue May 14, 9:10am EDT

Tue May 14, 8:10am EDT

Tue May 14, 7:10am EDT

Tue May 14, 6:10am EDT

Tue May 14, 5:10am EDT

Tue May 14, 4:10am EDT

Tue May 14, 3:10am EDT

Tue May 14, 2:10am EDT

Tue May 14, 1:10am EDT

Tue May 14, 12:10am EDT

Mon May 13, 11:10pm EDT

Mon May 13, 10:10pm EDT

Mon May 13, 9:10pm EDT

Mon May 13, 8:10pm EDT

Mon May 13, 7:10pm EDT

Mon May 13, 6:10pm EDT

Mon May 13, 5:10pm EDT

Mon May 13, 4:10pm EDT

Mon May 13, 3:10pm EDT

Mon May 13, 2:10pm EDT

Mon May 13, 1:10pm EDT

Mon May 13, 12:10pm EDT

Mon May 13, 11:10am EDT

Mon May 13, 10:10am EDT

Mon May 13, 9:10am EDT

Mon May 13, 8:10am EDT

Mon May 13, 7:10am EDT

Mon May 13, 6:10am EDT

Mon May 13, 5:10am EDT

Mon May 13, 4:10am EDT

Mon May 13, 3:10am EDT

Mon May 13, 2:10am EDT

Mon May 13, 1:10am EDT

Mon May 13, 12:10am EDT

Sun May 12, 11:10pm EDT

Sun May 12, 10:10pm EDT

Sun May 12, 9:10pm EDT

Sun May 12, 8:10pm EDT

Sun May 12, 7:10pm EDT

Sun May 12, 6:10pm EDT

Sun May 12, 5:10pm EDT

Sun May 12, 4:10pm EDT

Sun May 12, 3:10pm EDT

Sun May 12, 2:10pm EDT

Sun May 12, 1:10pm EDT

Sun May 12, 12:10pm EDT

Sun May 12, 11:10am EDT

Sun May 12, 10:10am EDT

Sun May 12, 9:10am EDT

Sun May 12, 8:10am EDT

Sun May 12, 7:10am EDT

Sun May 12, 6:10am EDT

Sun May 12, 5:10am EDT

Sun May 12, 4:10am EDT

Sun May 12, 3:10am EDT

Sun May 12, 2:10am EDT

Sun May 12, 1:10am EDT

Sun May 12, 12:10am EDT

Sat May 11, 11:10pm EDT

Sat May 11, 10:10pm EDT

Sat May 11, 9:10pm EDT

Sat May 11, 8:10pm EDT

Sat May 11, 7:10pm EDT

Sat May 11, 6:10pm EDT

Sat May 11, 5:10pm EDT

Sat May 11, 4:10pm EDT

Sat May 11, 3:10pm EDT

Sat May 11, 2:10pm EDT

Sat May 11, 1:10pm EDT

Sat May 11, 12:10pm EDT

Sat May 11, 11:10am EDT

Sat May 11, 10:10am EDT

Sat May 11, 9:10am EDT

Sat May 11, 8:10am EDT

Sat May 11, 7:10am EDT

Sat May 11, 6:10am EDT

Sat May 11, 5:10am EDT

Sat May 11, 4:10am EDT

Sat May 11, 3:10am EDT

Sat May 11, 2:10am EDT

Sat May 11, 1:10am EDT

Sat May 11, 12:10am EDT